Location: Newark
(34.1333°N, 7.9667°W)
Time: 07:27:21
(UTC+00:00)

UKube-1 - Pass Details

Date: 12 June 2023
Orbit: 598 x 602 km, 98.3° (Epoch: 28 September)

Event Time Altitude Azimuth Distance (km) Brightness Sun altitude
Rises 00:27:00 0° 3° (N) 2,855 ? -32.7°
Reaches altitude 10° 00:29:17 10° 355° (N) 1,946 ? -32.7°
Enters shadow 00:31:12 23° 339° (NNW) 1,273 ? -32.7°
